Simultaneous Nadir Overpasses (SNOs) Predictions

Prediction of SNOs between TERRA and METOP-C Satellite Orbit:

Table of predicted SNOs for the next 14.0 days since TLE Epoch: 5/11/2024
Index Date (TERRA) Time (TERRA) Lat,Lon (TERRA) SZA (TERRA ) Date (METOP-C) Time (METOP-C) Lat,Lon (METOP-C) SZA (METOP-C ) Distance(km) Time Diff (sec)
1 05/11/2024 15:56:13 -78.32, 131.11 119.64 05/11/2024 15:55:49 -78.31, 131.04 119.65 1.83 24
2 05/11/2024 16:45:25 78.70, -59.31 60.82 05/11/2024 16:46:20 78.70, -59.34 60.83 0.52 55
3 05/14/2024 06:27:07 -78.10, -87.66 120.54 05/14/2024 06:26:12 -78.09, -87.76 120.56 2.67 55
4 05/14/2024 07:16:18 78.52, 82.02 59.96 05/14/2024 07:16:42 78.52, 82.00 59.96 0.48 24
5 05/16/2024 21:47:06 78.42,-136.21 59.23 05/16/2024 21:47:01 78.43,-136.09 59.25 2.63 5
6 05/16/2024 22:36:21 -78.71, 32.94 120.42 05/16/2024 22:37:34 -78.72, 32.99 120.40 1.05 73
7 05/19/2024 12:17:52 78.23, 5.16 58.44 05/19/2024 12:17:21 78.23, 5.25 58.45 2.39 31
8 05/19/2024 13:07:07 -78.53, 174.29 121.21 05/19/2024 13:07:54 -78.53, 174.30 121.20 0.35 47
9 05/22/2024 02:48:38 77.94, 146.14 57.57 05/22/2024 02:47:44 77.93, 146.10 57.56 1.19 54
10 05/22/2024 03:37:49 -78.43, -43.92 121.86 05/22/2024 03:38:12 -78.44, -43.81 121.84 2.76 23
11 05/24/2024 17:20:27 74.38, -82.80 53.35 05/24/2024 17:19:14 74.54, -83.85 53.53 35.47 73



Historial Predications of SNOs between TERRA and METOP-C
